Location: Beuvrequen
(50.8014°N, 1.6652°E)
Time: 22:06:47
(UTC+00:00)

ARGOS - Pass Details

Date: 16 October 2021
Orbit: 820 x 835 km, 98.4° (Epoch: 05 December)

Event Time Altitude Azimuth Distance (km) Brightness Sun altitude
Rises 17:30:05 0° 144° (SE) 3,356 6.0 -5.7°
Reaches altitude 10° 17:32:29 10° 139° (SE) 2,429 5.3 -6.1°
Maximum altitude 17:37:38 48° 67° (ENE) 1,081 3.4 -6.9°
Drops below altitude 10° 17:42:49 10° 354° (N) 2,454 5.6 -7.7°
Sets 17:45:15 0° 349° (N) 3,394 6.4 -8.1°
